Terminal Aerodrome Forecast
Issued by NWS

Home | Current Version | Previous Version | Text Only | Print | Product List | Glossary On
Versions: 1 2 3 4 5 6 7 8 9 10 11 12 13 14 15 16 17
344
FTUS42 KFFC 212328
TAFRYY
TAF
KRYY 212328Z 2200/2224 10006KT 5SM -RA BR OVC040
     FM220200 10005KT 4SM -RA BR OVC015
     FM220400 10005KT 3SM -RA BR OVC007
     FM220800 10005KT 2SM -RA BR OVC003
     FM221500 12008G15KT 4SM -RA BR OVC007
     FM222000 11008KT P6SM OVC015
      AMD NOT SKED 2204/2212=

USA.gov is the U.S. government's official web portal to all federal, state and local government web resources and services.